TimeEDT,TemperatureF,Dew PointF,Humidity,Sea Level PressureIn,VisibilityMPH,Wind Direction,Wind SpeedMPH,Gust SpeedMPH,PrecipitationIn,Events,Conditions,WindDirDegrees,DateUTC
12:53 AM,42.1,39.0,89,30.24,10.0,Calm,Calm,-,N/A,,Clear,0,2011-11-03 04:53:00
1:53 AM,41.0,37.9,89,30.23,9.0,Calm,Calm,-,N/A,,Clear,0,2011-11-03 05:53:00
2:53 AM,41.0,37.9,89,30.21,10.0,Calm,Calm,-,N/A,,Clear,0,2011-11-03 06:53:00
3:53 AM,39.9,37.0,89,30.19,10.0,Calm,Calm,-,N/A,,Clear,0,2011-11-03 07:53:00
4:53 AM,37.0,35.1,93,30.18,8.0,Calm,Calm,-,N/A,,Clear,0,2011-11-03 08:53:00
5:53 AM,37.4,35.6,93,30.20,9.0,Calm,Calm,-,N/A,,Clear,0,2011-11-03 09:53:00
6:53 AM,36.0,34.0,93,30.17,7.0,Calm,Calm,-,N/A,,Clear,0,2011-11-03 10:53:00
7:11 AM,35.6,33.8,93,30.19,2.0,Calm,Calm,-,N/A,,Partly Cloudy,0,2011-11-03 11:11:00
7:21 AM,35.6,33.8,93,30.18,1.0,Calm,Calm,-,N/A,,Mist,0,2011-11-03 11:21:00
7:37 AM,33.8,33.8,100,30.18,0.8,Calm,Calm,-,N/A,,Mist,0,2011-11-03 11:37:00
7:41 AM,33.8,33.8,100,30.18,1.2,Calm,Calm,-,N/A,,Scattered Clouds,0,2011-11-03 11:41:00
7:47 AM,35.6,33.8,93,30.18,3.0,Calm,Calm,-,N/A,,Partly Cloudy,0,2011-11-03 11:47:00
7:53 AM,35.1,33.1,92,30.17,3.0,Calm,Calm,-,N/A,,Partly Cloudy,0,2011-11-03 11:53:00
8:53 AM,37.9,37.0,97,30.16,4.0,Calm,Calm,-,N/A,,Clear,0,2011-11-03 12:53:00
9:53 AM,46.0,39.9,79,30.15,10.0,Calm,Calm,-,N/A,,Clear,0,2011-11-03 13:53:00
10:53 AM,54.0,39.9,59,30.14,10.0,SSW,9.2,-,N/A,,Clear,210,2011-11-03 14:53:00
11:53 AM,57.0,39.9,53,30.11,10.0,South,4.6,-,N/A,,Clear,190,2011-11-03 15:53:00
12:53 PM,60.1,39.9,47,30.07,10.0,South,13.8,17.3,N/A,,Clear,190,2011-11-03 16:53:00
1:53 PM,62.1,41.0,46,30.03,10.0,SSW,11.5,19.6,N/A,,Clear,210,2011-11-03 17:53:00
2:53 PM,62.1,42.1,48,29.97,10.0,South,10.4,19.6,N/A,,Clear,190,2011-11-03 18:53:00
3:53 PM,62.1,42.1,48,29.92,10.0,SSW,8.1,18.4,N/A,,Partly Cloudy,200,2011-11-03 19:53:00
4:53 PM,62.1,44.1,52,29.91,10.0,SSW,8.1,-,N/A,,Mostly Cloudy,200,2011-11-03 20:53:00
5:53 PM,60.1,45.0,57,29.94,10.0,SW,5.8,-,N/A,,Overcast,230,2011-11-03 21:53:00
6:53 PM,60.1,45.0,57,29.89,10.0,Calm,Calm,-,N/A,,Mostly Cloudy,0,2011-11-03 22:53:00
7:53 PM,57.0,46.9,69,29.88,10.0,ENE,4.6,-,0.00,,Overcast,60,2011-11-03 23:53:00
8:53 PM,55.0,48.9,80,29.89,7.0,NNW,8.1,-,0.01,Rain,Light Rain,340,2011-11-04 00:53:00
9:07 PM,53.6,50.0,88,29.91,2.5,NNE,4.6,-,0.06,Rain,Rain,30,2011-11-04 01:07:00
9:14 PM,53.6,50.0,88,29.90,4.0,NNE,4.6,-,0.07,Rain,Light Rain,30,2011-11-04 01:14:00
9:39 PM,51.8,50.0,94,29.89,5.0,NNE,5.8,-,0.12,Rain,Rain,30,2011-11-04 01:39:00
9:53 PM,51.8,50.0,94,29.89,5.0,NE,4.6,-,N/A,Rain,Light Rain,40,2011-11-04 01:53:00
10:53 PM,52.0,50.0,93,29.83,3.0,NE,11.5,-,0.17,Rain,Rain,50,2011-11-04 02:53:00
11:18 PM,51.8,50.0,94,29.85,2.5,NE,10.4,-,0.10,Rain,Heavy Rain,40,2011-11-04 03:18:00
11:22 PM,51.8,50.0,94,29.85,3.0,NE,11.5,-,0.11,Rain,Rain,40,2011-11-04 03:22:00
11:41 PM,51.8,51.8,100,29.86,2.5,North,4.6,-,0.19,Rain,Heavy Rain,10,2011-11-04 03:41:00
11:53 PM,51.1,51.1,100,29.82,2.5,NNE,8.1,-,0.26,Rain,Heavy Rain,20,2011-11-04 03:53:00